User: anonymous   Login
Location: Unspecified
(38.7273°N, 77.0677°W)
Time: 08:26:59
(UTC-04:00)
Language:

JUGNU - Orbit

View from above orbital plane
View from above orbital plane
View from above satellite
View from above satellite

Ground track
Ground track

The orbit data is extracted from the following two-line orbital elements,

1 37839U 11058B   21263.97100270  .00000324  00000-0  30918-4 0  9999
2 37839  19.9625   9.9033 0019071  65.3923  90.9589 14.12724967514096
Epoch (UTC): 20 September 2021 23:18:14
Eccentricity: 0.0019071
inclination: 19.9625°
perigee height: 836 km
apogee height: 864 km
right ascension of ascending node: 9.9033°
argument of perigee: 65.3923°
revolutions per day: 14.12724967
mean anomaly at epoch: 90.9589°
orbit number at epoch: 51409

The dashed part of the orbit path shows where the satellite is in the earth's shadow,  

DLR